Time,TemperatureF,DewpointF,PressureIn,WindDirection,WindDirectionDegrees,WindSpeedMPH,WindSpeedGustMPH,Humidity,HourlyPrecipIn,Conditions,Clouds,dailyrainin,SoftwareType,DateUTC
2013-10-30 00:00:00,38.7,36.0,29.20,NNW,338,5.0,5.0,90,0.00,CLR,,0.00,WeatherDisplay:10.37,2013-10-30 08:00:00,
2013-10-30 00:05:00,38.7,35.7,29.20,NNW,338,5.0,5.0,89,0.00,CLR,,0.00,WeatherDisplay:10.37,2013-10-30 08:05:00,
2013-10-30 00:10:00,38.7,36.3,29.20,NNW,338,5.0,5.0,91,0.00,CLR,,0.00,WeatherDisplay:10.37,2013-10-30 08:10:00,
2013-10-30 00:15:00,38.8,36.4,29.20,NNW,338,5.0,5.0,91,0.00,CLR,,0.00,WeatherDisplay:10.37,2013-10-30 08:15:00,
2013-10-30 00:20:00,38.7,36.5,29.20,NNW,338,5.0,5.0,92,0.00,CLR,,0.00,WeatherDisplay:10.37,2013-10-30 08:20:00,
2013-10-30 00:25:00,38.7,36.5,29.20,NNW,338,5.0,5.0,92,0.00,CLR,,0.00,WeatherDisplay:10.37,2013-10-30 08:25:00,
2013-10-30 00:30:00,38.8,36.7,29.18,NNW,338,5.0,5.0,92,0.00,CLR,,0.00,WeatherDisplay:10.37,2013-10-30 08:30:00,
2013-10-30 00:35:00,38.7,36.5,29.18,NNW,338,5.0,5.0,92,0.00,CLR,,0.00,WeatherDisplay:10.37,2013-10-30 08:35:00,
2013-10-30 00:40:00,38.7,36.3,29.18,NNW,338,5.0,5.0,91,0.00,CLR,,0.00,WeatherDisplay:10.37,2013-10-30 08:40:00,
2013-10-30 00:45:00,38.7,36.0,29.18,NNW,338,5.0,5.0,90,0.00,CLR,,0.00,WeatherDisplay:10.37,2013-10-30 08:45:00,
2013-10-30 00:50:00,38.7,36.0,29.18,NNW,338,5.0,5.0,90,0.00,CLR,,0.00,WeatherDisplay:10.37,2013-10-30 08:50:00,
2013-10-30 00:55:00,38.7,35.7,29.18,NNW,338,5.0,5.0,89,0.00,CLR,,0.00,WeatherDisplay:10.37,2013-10-30 08:55:00,
2013-10-30 01:00:00,38.5,35.5,29.18,NNW,338,5.0,5.0,89,0.00,CLR,,0.00,WeatherDisplay:10.37,2013-10-30 09:00:00,
2013-10-30 01:05:00,38.7,35.7,29.18,NNW,338,5.0,5.0,89,0.00,CLR,,0.00,WeatherDisplay:10.37,2013-10-30 09:05:00,
2013-10-30 01:10:00,38.7,36.0,29.18,NNW,338,5.0,5.0,90,0.00,CLR,,0.00,WeatherDisplay:10.37,2013-10-30 09:10:00,
2013-10-30 01:15:00,38.7,36.0,29.18,NNW,338,5.0,5.0,90,0.00,CLR,,0.00,WeatherDisplay:10.37,2013-10-30 09:15:00,
2013-10-30 01:20:00,38.7,36.0,29.18,NNW,338,5.0,5.0,90,0.00,CLR,,0.00,WeatherDisplay:10.37,2013-10-30 09:20:00,
2013-10-30 01:25:00,38.7,35.7,29.18,NNW,338,5.0,5.0,89,0.00,CLR,,0.00,WeatherDisplay:10.37,2013-10-30 09:25:00,
2013-10-30 01:30:00,38.5,35.5,29.18,NNW,338,5.0,5.0,89,0.00,CLR,,0.00,WeatherDisplay:10.37,2013-10-30 09:30:00,
2013-10-30 01:35:00,38.5,35.5,29.18,NNW,338,5.0,5.0,89,0.00,CLR,,0.00,WeatherDisplay:10.37,2013-10-30 09:35:00,
2013-10-30 01:40:00,38.3,35.3,29.18,NNW,338,5.0,5.0,89,0.00,CLR,,0.00,WeatherDisplay:10.37,2013-10-30 09:40:00,
2013-10-30 01:45:00,38.1,35.2,29.15,NNW,338,5.0,5.0,89,0.00,CLR,,0.00,WeatherDisplay:10.37,2013-10-30 09:45:00,
2013-10-30 01:50:00,38.1,35.2,29.15,NNW,338,5.0,5.0,89,0.00,CLR,,0.00,WeatherDisplay:10.37,2013-10-30 09:50:00,
2013-10-30 01:55:00,38.1,35.2,29.15,NNW,338,5.0,5.0,89,0.00,CLR,,0.00,WeatherDisplay:10.37,2013-10-30 09:55:00,
2013-10-30 02:00:00,38.1,35.2,29.15,NNW,338,5.0,5.0,89,0.00,CLR,,0.00,WeatherDisplay:10.37,2013-10-30 10:00:00,
2013-10-30 02:05:00,38.1,35.2,29.15,NNW,338,5.0,5.0,89,0.00,CLR,,0.00,WeatherDisplay:10.37,2013-10-30 10:05:00,
2013-10-30 02:10:00,38.1,35.2,29.15,NNW,338,5.0,5.0,89,0.00,CLR,,0.00,WeatherDisplay:10.37,2013-10-30 10:10:00,
2013-10-30 02:15:00,38.1,35.2,29.12,NNW,338,5.0,5.0,89,0.00,CLR,,0.00,WeatherDisplay:10.37,2013-10-30 10:15:00,
2013-10-30 02:20:00,37.9,35.0,29.12,NNW,338,5.0,5.0,89,0.00,CLR,,0.00,WeatherDisplay:10.37,2013-10-30 10:20:00,
2013-10-30 02:25:00,37.8,34.8,29.12,NNW,338,5.0,5.0,89,0.00,CLR,,0.00,WeatherDisplay:10.37,2013-10-30 10:25:00,
2013-10-30 02:30:00,37.6,34.3,29.12,NNW,338,5.0,5.0,88,0.00,CLR,,0.00,WeatherDisplay:10.37,2013-10-30 10:30:00,
2013-10-30 02:35:00,37.6,34.3,29.12,NNW,338,5.0,5.0,88,0.00,CLR,,0.00,WeatherDisplay:10.37,2013-10-30 10:35:00,
2013-10-30 02:40:00,37.6,34.6,29.12,NNW,338,5.0,5.0,89,0.00,CLR,,0.00,WeatherDisplay:10.37,2013-10-30 10:40:00,
2013-10-30 02:45:00,37.6,34.6,29.12,NNW,338,5.0,5.0,89,0.00,CLR,,0.00,WeatherDisplay:10.37,2013-10-30 10:45:00,
2013-10-30 02:50:00,37.6,34.6,29.12,NNW,338,5.0,5.0,89,0.00,CLR,,0.00,WeatherDisplay:10.37,2013-10-30 10:50:00,
2013-10-30 03:00:00,37.6,34.6,29.09,NNW,338,5.0,5.0,89,0.00,CLR,,0.00,WeatherDisplay:10.37,2013-10-30 11:00:00,
2013-10-30 03:05:00,37.6,34.9,29.09,NNW,338,5.0,5.0,90,0.00,CLR,,0.00,WeatherDisplay:10.37,2013-10-30 11:05:00,
2013-10-30 03:10:00,37.8,35.1,29.09,NNW,338,5.0,5.0,90,0.00,CLR,,0.00,WeatherDisplay:10.37,2013-10-30 11:10:00,
2013-10-30 03:15:00,37.8,35.1,29.12,NNW,338,5.0,5.0,90,0.00,CLR,,0.00,WeatherDisplay:10.37,2013-10-30 11:15:00,
2013-10-30 03:20:00,37.8,35.4,29.12,NNW,338,5.0,5.0,91,0.00,CLR,,0.00,WeatherDisplay:10.37,2013-10-30 11:20:00,
2013-10-30 03:25:00,37.9,35.5,29.12,NNW,338,5.0,5.0,91,0.00,CLR,,0.00,WeatherDisplay:10.37,2013-10-30 11:25:00,
2013-10-30 03:30:00,37.9,35.5,29.09,NNW,338,5.0,5.0,91,0.00,CLR,,0.00,WeatherDisplay:10.37,2013-10-30 11:30:00,
2013-10-30 03:35:00,37.9,35.5,29.09,NNW,338,5.0,5.0,91,0.00,CLR,,0.00,WeatherDisplay:10.37,2013-10-30 11:35:00,
2013-10-30 03:40:00,37.9,35.3,29.09,NNW,338,5.0,5.0,90,0.00,CLR,,0.00,WeatherDisplay:10.37,2013-10-30 11:40:00,
2013-10-30 03:45:00,37.9,35.3,29.09,NNW,338,5.0,5.0,90,0.00,CLR,,0.00,WeatherDisplay:10.37,2013-10-30 11:45:00,
2013-10-30 03:50:00,37.9,35.2,29.09,NNW,338,5.0,5.0,90,0.00,CLR,,0.00,WeatherDisplay:10.37,2013-10-30 11:50:00,
2013-10-30 03:55:00,37.8,34.8,29.09,NNW,338,5.0,5.0,89,0.00,CLR,,0.00,WeatherDisplay:10.37,2013-10-30 11:55:00,
2013-10-30 04:00:00,37.8,34.8,29.09,NNW,338,5.0,5.0,89,0.00,CLR,,0.00,WeatherDisplay:10.37,2013-10-30 12:00:00,
2013-10-30 04:05:00,37.8,34.5,29.09,NNW,338,5.0,5.0,88,0.00,CLR,,0.00,WeatherDisplay:10.37,2013-10-30 12:05:00,
2013-10-30 04:10:00,37.9,35.0,29.09,NNW,338,5.0,5.0,89,0.00,CLR,,0.00,WeatherDisplay:10.37,2013-10-30 12:10:00,
2013-10-30 04:15:00,37.9,35.0,29.09,NNW,338,5.0,5.0,89,0.00,CLR,,0.00,WeatherDisplay:10.37,2013-10-30 12:15:00,
2013-10-30 04:20:00,37.9,34.7,29.09,NNW,338,5.0,5.0,88,0.00,CLR,,0.00,WeatherDisplay:10.37,2013-10-30 12:20:00,
2013-10-30 04:25:00,37.9,35.0,29.09,NNW,338,5.0,5.0,89,0.00,CLR,,0.00,WeatherDisplay:10.37,2013-10-30 12:25:00,
2013-10-30 04:30:00,37.9,34.7,29.06,NNW,338,5.0,5.0,88,0.00,CLR,,0.00,WeatherDisplay:10.37,2013-10-30 12:30:00,
2013-10-30 04:35:00,37.9,34.7,29.06,NNW,338,5.0,5.0,88,0.00,CLR,,0.00,WeatherDisplay:10.37,2013-10-30 12:35:00,
2013-10-30 04:40:00,37.9,34.7,29.06,NNW,338,5.0,5.0,88,0.00,CLR,,0.00,WeatherDisplay:10.37,2013-10-30 12:40:00,
2013-10-30 04:45:00,37.9,34.7,29.06,NNW,338,5.0,5.0,88,0.00,CLR,,0.00,WeatherDisplay:10.37,2013-10-30 12:45:00,
2013-10-30 04:50:00,38.1,34.9,29.06,NNW,338,5.0,5.0,88,0.00,CLR,,0.00,WeatherDisplay:10.37,2013-10-30 12:50:00,
2013-10-30 04:55:00,38.1,34.9,29.06,NNW,338,5.0,5.0,88,0.00,CLR,,0.00,WeatherDisplay:10.37,2013-10-30 12:55:00,
2013-10-30 05:00:00,38.1,34.8,29.06,NNW,338,5.0,5.0,88,0.00,CLR,,0.00,WeatherDisplay:10.37,2013-10-30 13:00:00,
2013-10-30 05:05:00,37.9,34.7,29.06,NNW,338,5.0,5.0,88,0.00,CLR,,0.00,WeatherDisplay:10.37,2013-10-30 13:05:00,
2013-10-30 05:10:00,38.0,34.8,29.06,NNW,338,5.0,5.0,88,0.00,CLR,,0.00,WeatherDisplay:10.37,2013-10-30 13:10:00,
2013-10-30 05:15:00,37.9,34.6,29.06,NNW,338,5.0,5.0,88,0.00,CLR,,0.00,WeatherDisplay:10.37,2013-10-30 13:15:00,
2013-10-30 05:20:00,37.8,34.5,29.06,NNW,338,5.0,5.0,88,0.00,CLR,,0.00,WeatherDisplay:10.37,2013-10-30 13:20:00,
2013-10-30 05:25:00,37.6,34.3,29.06,NNW,338,5.0,5.0,88,0.00,CLR,,0.00,WeatherDisplay:10.37,2013-10-30 13:25:00,
2013-10-30 05:30:00,37.6,34.3,29.03,NNW,338,5.0,5.0,88,0.00,CLR,,0.00,WeatherDisplay:10.37,2013-10-30 13:30:00,
2013-10-30 05:35:00,37.6,34.3,29.03,NNW,338,5.0,5.0,88,0.00,CLR,,0.00,WeatherDisplay:10.37,2013-10-30 13:35:00,
2013-10-30 05:40:00,37.4,34.2,29.03,NNW,338,5.0,5.0,88,0.00,CLR,,0.00,WeatherDisplay:10.37,2013-10-30 13:40:00,
2013-10-30 05:45:00,37.4,34.2,29.03,NNW,338,5.0,5.0,88,0.00,CLR,,0.00,WeatherDisplay:10.37,2013-10-30 13:45:00,
2013-10-30 05:50:00,37.6,34.3,29.03,NNW,338,5.0,5.0,88,0.00,CLR,,0.00,WeatherDisplay:10.37,2013-10-30 13:50:00,
2013-10-30 05:55:00,37.6,34.3,29.03,NNW,338,5.0,5.0,88,0.00,CLR,,0.00,WeatherDisplay:10.37,2013-10-30 13:55:00,
2013-10-30 06:00:00,37.6,34.7,29.03,NNW,338,5.0,5.0,89,0.00,CLR,,0.00,WeatherDisplay:10.37,2013-10-30 14:00:00,
2013-10-30 06:05:00,37.8,34.5,29.03,NNW,338,5.0,5.0,88,0.00,CLR,,0.00,WeatherDisplay:10.37,2013-10-30 14:05:00,
2013-10-30 06:10:00,37.9,34.3,29.03,NNW,338,5.0,5.0,87,0.00,CLR,,0.00,WeatherDisplay:10.37,2013-10-30 14:10:00,
2013-10-30 06:15:00,37.8,34.2,29.03,NNW,338,5.0,5.0,87,0.00,CLR,,0.00,WeatherDisplay:10.37,2013-10-30 14:15:00,
2013-10-30 06:20:00,37.8,34.2,29.03,NNW,338,5.0,5.0,87,0.00,CLR,,0.00,WeatherDisplay:10.37,2013-10-30 14:20:00,
2013-10-30 06:25:00,37.6,34.1,29.03,NNW,338,5.0,5.0,87,0.00,CLR,,0.00,WeatherDisplay:10.37,2013-10-30 14:25:00,
2013-10-30 06:30:00,37.8,34.2,29.03,NNW,338,5.0,5.0,87,0.00,CLR,,0.00,WeatherDisplay:10.37,2013-10-30 14:30:00,
2013-10-30 06:35:00,37.8,33.9,29.03,NNW,338,5.0,5.0,86,0.00,CLR,,0.00,WeatherDisplay:10.37,2013-10-30 14:35:00,
2013-10-30 06:40:00,37.8,33.9,29.03,NNW,338,5.0,5.0,86,0.00,CLR,,0.00,WeatherDisplay:10.37,2013-10-30 14:40:00,
2013-10-30 06:45:00,37.8,33.9,29.03,NNW,338,5.0,5.0,86,0.00,CLR,,0.00,WeatherDisplay:10.37,2013-10-30 14:45:00,
2013-10-30 06:50:00,37.8,33.9,29.03,NNW,338,5.0,5.0,86,0.00,CLR,,0.00,WeatherDisplay:10.37,2013-10-30 14:50:00,
2013-10-30 06:55:00,37.8,33.9,29.03,NNW,338,5.0,5.0,86,0.00,CLR,,0.00,WeatherDisplay:10.37,2013-10-30 14:55:00,
2013-10-30 07:00:00,37.8,33.9,29.00,NNW,338,5.0,5.0,86,0.00,CLR,,0.00,WeatherDisplay:10.37,2013-10-30 15:00:00,
2013-10-30 07:10:00,37.9,33.8,29.00,NNW,338,5.0,5.0,85,0.00,CLR,,0.00,WeatherDisplay:10.37,2013-10-30 15:10:00,
2013-10-30 07:15:00,37.9,33.8,29.03,NNW,338,5.0,5.0,85,0.00,CLR,,0.00,WeatherDisplay:10.37,2013-10-30 15:15:00,
2013-10-30 07:20:00,37.9,33.8,29.03,NNW,338,5.0,5.0,85,0.00,CLR,,0.00,WeatherDisplay:10.37,2013-10-30 15:20:00,
2013-10-30 07:25:00,37.9,33.8,29.03,NNW,338,5.0,5.0,85,0.00,CLR,,0.00,WeatherDisplay:10.37,2013-10-30 15:25:00,
2013-10-30 07:30:00,38.1,33.7,29.00,NNW,338,5.0,5.0,84,0.00,CLR,,0.00,WeatherDisplay:10.37,2013-10-30 15:30:00,
2013-10-30 07:35:00,38.0,33.6,29.00,NNW,338,5.0,5.0,84,0.00,CLR,,0.00,WeatherDisplay:10.37,2013-10-30 15:35:00,
2013-10-30 07:40:00,37.9,33.8,29.00,NNW,338,5.0,5.0,85,0.00,CLR,,0.00,WeatherDisplay:10.37,2013-10-30 15:40:00,
2013-10-30 07:45:00,38.1,34.0,29.00,NNW,338,5.0,5.0,85,0.00,CLR,,0.00,WeatherDisplay:10.37,2013-10-30 15:45:00,
2013-10-30 07:50:00,38.1,34.0,29.00,NNW,338,5.0,5.0,85,0.00,CLR,,0.00,WeatherDisplay:10.37,2013-10-30 15:50:00,
2013-10-30 07:55:00,38.1,33.7,29.00,NNW,338,5.0,5.0,84,0.00,CLR,,0.00,WeatherDisplay:10.37,2013-10-30 15:55:00,
2013-10-30 08:00:00,38.1,33.7,29.00,NNW,338,5.0,5.0,84,0.00,CLR,,0.00,WeatherDisplay:10.37,2013-10-30 16:00:00,
2013-10-30 08:05:00,37.9,33.5,29.00,NNW,338,5.0,5.0,84,0.00,CLR,,0.00,WeatherDisplay:10.37,2013-10-30 16:05:00,
2013-10-30 08:10:00,37.9,33.5,29.00,NNW,338,5.0,5.0,84,0.00,CLR,,0.00,WeatherDisplay:10.37,2013-10-30 16:10:00,
2013-10-30 08:15:00,37.9,33.5,28.97,NNW,338,5.0,5.0,84,0.00,CLR,,0.00,WeatherDisplay:10.37,2013-10-30 16:15:00,
2013-10-30 08:20:00,37.8,33.4,28.97,NNW,338,5.0,5.0,84,0.00,CLR,,0.00,WeatherDisplay:10.37,2013-10-30 16:20:00,
2013-10-30 08:25:00,37.6,33.5,28.97,NNW,338,5.0,5.0,85,0.00,CLR,,0.00,WeatherDisplay:10.37,2013-10-30 16:25:00,
2013-10-30 08:35:00,37.4,33.3,28.97,NNW,338,5.0,5.0,85,0.00,CLR,,0.00,WeatherDisplay:10.37,2013-10-30 16:35:00,
2013-10-30 08:40:00,37.4,33.3,28.97,NNW,338,5.0,5.0,85,0.00,CLR,,0.00,WeatherDisplay:10.37,2013-10-30 16:40:00,
2013-10-30 08:45:00,37.4,33.6,29.00,NNW,338,5.0,5.0,86,0.00,CLR,,0.00,WeatherDisplay:10.37,2013-10-30 16:45:00,
2013-10-30 08:50:00,37.4,33.6,29.00,NNW,338,5.0,5.0,86,0.00,CLR,,0.00,WeatherDisplay:10.37,2013-10-30 16:50:00,
2013-10-30 08:55:00,37.4,33.6,29.00,NNW,338,5.0,5.0,86,0.00,CLR,,0.00,WeatherDisplay:10.37,2013-10-30 16:55:00,
2013-10-30 09:00:00,37.2,33.7,28.97,NNW,338,5.0,5.0,87,0.00,CLR,,0.00,WeatherDisplay:10.37,2013-10-30 17:00:00,
2013-10-30 09:05:00,37.2,33.7,28.97,NNW,338,5.0,5.0,87,0.00,CLR,,0.00,WeatherDisplay:10.37,2013-10-30 17:05:00,
2013-10-30 09:10:00,37.5,33.9,28.97,NNW,338,5.0,5.0,87,0.00,CLR,,0.00,WeatherDisplay:10.37,2013-10-30 17:10:00,
2013-10-30 09:15:00,37.6,34.1,28.97,NNW,338,5.0,5.0,87,0.00,CLR,,0.00,WeatherDisplay:10.37,2013-10-30 17:15:00,
2013-10-30 09:20:00,37.7,34.2,28.97,NNW,338,5.0,5.0,87,0.00,CLR,,0.00,WeatherDisplay:10.37,2013-10-30 17:20:00,
2013-10-30 09:25:00,37.6,34.1,28.97,NNW,338,5.0,5.0,87,0.00,CLR,,0.00,WeatherDisplay:10.37,2013-10-30 17:25:00,
2013-10-30 09:30:00,37.6,34.1,28.97,NNW,338,5.0,5.0,87,0.00,CLR,,0.00,WeatherDisplay:10.37,2013-10-30 17:30:00,
2013-10-30 09:35:00,37.4,33.9,28.97,NNW,338,5.0,5.0,87,0.00,CLR,,0.00,WeatherDisplay:10.37,2013-10-30 17:35:00,
2013-10-30 09:40:00,37.6,34.3,28.97,NNW,338,5.0,5.0,88,0.00,CLR,,0.00,WeatherDisplay:10.37,2013-10-30 17:40:00,
2013-10-30 09:45:00,37.4,33.9,28.97,NNW,338,5.0,5.0,87,0.00,CLR,,0.00,WeatherDisplay:10.37,2013-10-30 17:45:00,
2013-10-30 09:50:00,37.5,34.0,28.97,NNW,338,5.0,5.0,87,0.00,CLR,,0.00,WeatherDisplay:10.37,2013-10-30 17:50:00,
2013-10-30 09:55:00,37.6,34.1,28.97,NNW,338,5.0,5.0,87,0.00,CLR,,0.00,WeatherDisplay:10.37,2013-10-30 17:55:00,
2013-10-30 10:00:00,37.9,34.4,28.97,NNW,338,5.0,5.0,87,0.00,CLR,,0.00,WeatherDisplay:10.37,2013-10-30 18:00:00,
2013-10-30 10:05:00,38.0,34.5,28.97,NNW,338,5.0,5.0,87,0.00,CLR,,0.00,WeatherDisplay:10.37,2013-10-30 18:05:00,
2013-10-30 10:10:00,38.3,34.5,28.97,NNW,338,5.0,5.0,86,0.00,CLR,,0.00,WeatherDisplay:10.37,2013-10-30 18:10:00,
2013-10-30 10:15:00,38.6,34.8,28.97,NNW,338,5.0,5.0,86,0.00,CLR,,0.00,WeatherDisplay:10.37,2013-10-30 18:15:00,
2013-10-30 10:20:00,38.7,34.8,28.97,NNW,338,5.0,5.0,86,0.00,CLR,,0.00,WeatherDisplay:10.37,2013-10-30 18:20:00,
2013-10-30 10:25:00,39.0,35.2,28.97,NNW,338,5.0,5.0,86,0.00,CLR,,0.00,WeatherDisplay:10.37,2013-10-30 18:25:00,
2013-10-30 10:30:00,39.2,35.4,28.97,NNW,338,5.0,5.0,86,0.00,CLR,,0.00,WeatherDisplay:10.37,2013-10-30 18:30:00,
2013-10-30 10:35:00,41.1,36.9,28.97,NNW,338,5.0,5.0,85,0.00,CLR,,0.00,WeatherDisplay:10.37,2013-10-30 18:35:00,
2013-10-30 10:40:00,40.5,35.4,28.97,NNW,338,5.0,5.0,82,0.00,CLR,,0.00,WeatherDisplay:10.37,2013-10-30 18:40:00,
2013-10-30 10:45:00,42.2,37.1,28.94,NNW,338,5.0,5.0,82,0.00,CLR,,0.00,WeatherDisplay:10.37,2013-10-30 18:45:00,
2013-10-30 10:50:00,44.1,37.3,28.94,NNW,338,5.0,5.0,77,0.00,CLR,,0.00,WeatherDisplay:10.37,2013-10-30 18:50:00,
2013-10-30 10:55:00,45.5,38.1,28.94,NNW,338,5.0,5.0,75,0.00,CLR,,0.00,WeatherDisplay:10.37,2013-10-30 18:55:00,
2013-10-30 11:05:00,45.1,36.3,28.97,NNW,338,5.0,5.0,71,0.00,CLR,,0.00,WeatherDisplay:10.37,2013-10-30 19:05:00,
2013-10-30 11:10:00,44.0,35.9,28.97,NNW,338,5.0,5.0,73,0.00,CLR,,0.00,WeatherDisplay:10.37,2013-10-30 19:10:00,
2013-10-30 11:15:00,44.5,34.9,28.97,NNW,338,5.0,5.0,69,0.00,CLR,,0.00,WeatherDisplay:10.37,2013-10-30 19:15:00,
2013-10-30 11:20:00,45.3,36.5,28.97,NNW,338,5.0,5.0,71,0.00,CLR,,0.00,WeatherDisplay:10.37,2013-10-30 19:20:00,
2013-10-30 11:25:00,43.7,34.2,28.97,NNW,338,5.0,5.0,69,0.00,CLR,,0.00,WeatherDisplay:10.37,2013-10-30 19:25:00,
2013-10-30 11:30:00,44.1,35.3,28.94,NNW,338,5.0,5.0,71,0.00,CLR,,0.00,WeatherDisplay:10.37,2013-10-30 19:30:00,
2013-10-30 11:35:00,44.7,35.5,28.94,NNW,338,5.0,5.0,70,0.00,CLR,,0.00,WeatherDisplay:10.37,2013-10-30 19:35:00,
2013-10-30 11:40:00,44.8,35.9,28.94,NNW,338,5.0,5.0,71,0.00,CLR,,0.00,WeatherDisplay:10.37,2013-10-30 19:40:00,
2013-10-30 11:45:00,45.1,35.6,28.97,NNW,338,5.0,5.0,69,0.00,CLR,,0.00,WeatherDisplay:10.37,2013-10-30 19:45:00,
2013-10-30 11:50:00,45.4,36.6,28.97,NNW,338,5.0,5.0,71,0.00,CLR,,0.00,WeatherDisplay:10.37,2013-10-30 19:50:00,
2013-10-30 11:55:00,45.9,36.3,28.97,NNW,338,5.0,5.0,69,0.00,CLR,,0.00,WeatherDisplay:10.37,2013-10-30 19:55:00,
2013-10-30 12:00:00,46.4,36.4,28.97,NNW,338,5.0,5.0,68,0.00,CLR,,0.00,WeatherDisplay:10.37,2013-10-30 20:00:00,
2013-10-30 12:05:00,47.3,37.3,28.97,NNW,338,5.0,5.0,68,0.00,CLR,,0.00,WeatherDisplay:10.37,2013-10-30 20:05:00,
2013-10-30 12:10:00,47.4,36.9,28.97,NNW,338,5.0,5.0,67,0.00,CLR,,0.00,WeatherDisplay:10.37,2013-10-30 20:10:00,
2013-10-30 12:15:00,47.7,36.5,28.94,NNW,338,5.0,5.0,65,0.00,CLR,,0.00,WeatherDisplay:10.37,2013-10-30 20:15:00,
2013-10-30 12:20:00,46.9,35.8,28.94,NNW,338,5.0,5.0,65,0.00,CLR,,0.00,WeatherDisplay:10.37,2013-10-30 20:20:00,
2013-10-30 12:25:00,47.3,34.5,28.94,NNW,338,5.0,5.0,61,0.00,CLR,,0.00,WeatherDisplay:10.37,2013-10-30 20:25:00,
2013-10-30 12:30:00,46.3,34.4,28.94,NNW,338,5.0,5.0,63,0.00,CLR,,0.00,WeatherDisplay:10.37,2013-10-30 20:30:00,
2013-10-30 12:35:00,45.1,32.8,28.94,NNW,338,5.0,5.0,62,0.00,CLR,,0.00,WeatherDisplay:10.37,2013-10-30 20:35:00,
2013-10-30 12:40:00,44.4,33.0,28.94,NNW,338,5.0,5.0,64,0.00,CLR,,0.00,WeatherDisplay:10.37,2013-10-30 20:40:00,
2013-10-30 12:45:00,44.6,33.9,28.94,NNW,338,5.0,5.0,66,0.00,CLR,,0.00,WeatherDisplay:10.37,2013-10-30 20:45:00,
2013-10-30 12:50:00,44.6,34.3,28.94,NNW,338,5.0,5.0,67,0.00,CLR,,0.00,WeatherDisplay:10.37,2013-10-30 20:50:00,
2013-10-30 12:55:00,44.2,34.0,28.94,NNW,338,5.0,5.0,67,0.00,CLR,,0.00,WeatherDisplay:10.37,2013-10-30 20:55:00,
2013-10-30 13:00:00,44.4,34.5,28.94,NNW,338,5.0,5.0,68,0.00,CLR,,0.00,WeatherDisplay:10.37,2013-10-30 21:00:00,
2013-10-30 13:05:00,46.3,36.3,28.94,NNW,338,5.0,5.0,68,0.00,CLR,,0.00,WeatherDisplay:10.37,2013-10-30 21:05:00,
2013-10-30 13:10:00,45.5,35.2,28.94,NNW,338,5.0,5.0,67,0.00,CLR,,0.00,WeatherDisplay:10.37,2013-10-30 21:10:00,
2013-10-30 13:15:00,45.8,35.8,28.94,NNW,338,5.0,5.0,68,0.00,CLR,,0.00,WeatherDisplay:10.37,2013-10-30 21:15:00,
2013-10-30 13:20:00,45.5,34.8,28.94,NNW,338,5.0,5.0,66,0.00,CLR,,0.00,WeatherDisplay:10.37,2013-10-30 21:20:00,
2013-10-30 13:25:00,45.2,34.8,28.94,NNW,338,5.0,5.0,67,0.00,CLR,,0.00,WeatherDisplay:10.37,2013-10-30 21:25:00,
2013-10-30 13:30:00,44.5,33.4,28.94,NNW,338,5.0,5.0,65,0.00,CLR,,0.00,WeatherDisplay:10.37,2013-10-30 21:30:00,
2013-10-30 13:35:00,44.2,34.0,28.94,NNW,338,5.0,5.0,67,0.00,CLR,,0.00,WeatherDisplay:10.37,2013-10-30 21:35:00,
2013-10-30 13:40:00,44.2,34.3,28.94,NNW,338,5.0,5.0,68,0.00,CLR,,0.00,WeatherDisplay:10.37,2013-10-30 21:40:00,
2013-10-30 13:45:00,44.2,34.3,28.94,NNW,338,5.0,5.0,68,0.00,CLR,,0.00,WeatherDisplay:10.37,2013-10-30 21:45:00,
2013-10-30 13:50:00,44.1,34.2,28.94,NNW,338,5.0,5.0,68,0.00,CLR,,0.00,WeatherDisplay:10.37,2013-10-30 21:50:00,
2013-10-30 13:55:00,44.1,34.5,28.94,NNW,338,5.0,5.0,69,0.00,CLR,,0.00,WeatherDisplay:10.37,2013-10-30 21:55:00,
2013-10-30 14:00:00,44.1,34.5,28.94,NNW,338,5.0,5.0,69,0.00,CLR,,0.00,WeatherDisplay:10.37,2013-10-30 22:00:00,
2013-10-30 14:05:00,43.9,34.4,28.94,NNW,338,5.0,5.0,69,0.00,CLR,,0.00,WeatherDisplay:10.37,2013-10-30 22:05:00,
2013-10-30 14:10:00,43.9,34.4,28.94,NNW,338,5.0,5.0,69,0.00,CLR,,0.00,WeatherDisplay:10.37,2013-10-30 22:10:00,
2013-10-30 14:15:00,43.7,34.2,28.94,NNW,338,5.0,5.0,69,0.00,CLR,,0.00,WeatherDisplay:10.37,2013-10-30 22:15:00,
2013-10-30 14:20:00,43.7,34.2,28.94,NNW,338,5.0,5.0,69,0.00,CLR,,0.00,WeatherDisplay:10.37,2013-10-30 22:20:00,
2013-10-30 14:25:00,43.9,34.3,28.94,NNW,338,5.0,5.0,69,0.00,CLR,,0.00,WeatherDisplay:10.37,2013-10-30 22:25:00,
2013-10-30 14:30:00,43.9,34.4,28.94,NNW,338,5.0,5.0,69,0.00,CLR,,0.00,WeatherDisplay:10.37,2013-10-30 22:30:00,
2013-10-30 14:35:00,44.1,34.5,28.94,NNW,338,5.0,5.0,69,0.00,CLR,,0.00,WeatherDisplay:10.37,2013-10-30 22:35:00,
2013-10-30 14:40:00,44.2,35.1,28.94,NNW,338,5.0,5.0,70,0.00,CLR,,0.00,WeatherDisplay:10.37,2013-10-30 22:40:00,
2013-10-30 14:45:00,44.2,35.1,28.94,NNW,338,5.0,5.0,70,0.00,CLR,,0.00,WeatherDisplay:10.37,2013-10-30 22:45:00,
2013-10-30 14:55:00,44.6,35.0,28.94,NNW,338,5.0,5.0,69,0.00,CLR,,0.00,WeatherDisplay:10.37,2013-10-30 22:55:00,
2013-10-30 15:05:00,44.8,35.6,28.94,NNW,338,5.0,5.0,70,0.00,CLR,,0.00,WeatherDisplay:10.37,2013-10-30 23:05:00,
2013-10-30 15:10:00,44.8,35.6,28.94,NNW,338,5.0,5.0,70,0.00,CLR,,0.00,WeatherDisplay:10.37,2013-10-30 23:10:00,
2013-10-30 15:15:00,44.8,35.2,28.94,NNW,338,5.0,5.0,69,0.00,CLR,,0.00,WeatherDisplay:10.37,2013-10-30 23:15:00,
2013-10-30 15:20:00,44.8,35.6,28.94,NNW,338,5.0,5.0,70,0.00,CLR,,0.00,WeatherDisplay:10.37,2013-10-30 23:20:00,
2013-10-30 15:25:00,44.8,34.9,28.94,NNW,338,5.0,5.0,68,0.00,CLR,,0.00,WeatherDisplay:10.37,2013-10-30 23:25:00,
2013-10-30 15:30:00,44.6,34.7,28.94,NNW,338,5.0,5.0,68,0.00,CLR,,0.00,WeatherDisplay:10.37,2013-10-30 23:30:00,
2013-10-30 15:35:00,44.4,33.8,28.94,NNW,338,5.0,5.0,66,0.00,CLR,,0.00,WeatherDisplay:10.37,2013-10-30 23:35:00,
2013-10-30 15:40:00,44.4,34.1,28.94,NNW,338,5.0,5.0,67,0.00,CLR,,0.00,WeatherDisplay:10.37,2013-10-30 23:40:00,
2013-10-30 15:45:00,44.2,34.0,28.94,NNW,338,5.0,5.0,67,0.00,CLR,,0.00,WeatherDisplay:10.37,2013-10-30 23:45:00,
2013-10-30 15:50:00,44.2,34.7,28.94,NNW,338,5.0,5.0,69,0.00,CLR,,0.00,WeatherDisplay:10.37,2013-10-30 23:50:00,
2013-10-30 15:55:00,44.6,35.0,28.94,NNW,338,5.0,5.0,69,0.00,CLR,,0.00,WeatherDisplay:10.37,2013-10-30 23:55:00,
2013-10-30 16:00:00,44.6,35.1,28.94,NNW,338,5.0,5.0,69,0.00,CLR,,0.00,WeatherDisplay:10.37,2013-10-31 00:00:00,
2013-10-30 16:05:00,44.6,35.1,28.94,NNW,338,5.0,5.0,69,0.00,CLR,,0.00,WeatherDisplay:10.37,2013-10-31 00:05:00,
2013-10-30 16:10:00,44.4,34.5,28.94,NNW,338,5.0,5.0,68,0.00,CLR,,0.00,WeatherDisplay:10.37,2013-10-31 00:10:00,
2013-10-30 16:15:00,44.5,34.6,28.94,NNW,338,5.0,5.0,68,0.00,CLR,,0.00,WeatherDisplay:10.37,2013-10-31 00:15:00,
2013-10-30 16:20:00,44.2,34.3,28.94,NNW,338,5.0,5.0,68,0.00,CLR,,0.00,WeatherDisplay:10.37,2013-10-31 00:20:00,
2013-10-30 16:25:00,44.2,34.7,28.94,NNW,338,5.0,5.0,69,0.00,CLR,,0.00,WeatherDisplay:10.37,2013-10-31 00:25:00,
2013-10-30 16:30:00,44.2,35.1,28.94,NNW,338,5.0,5.0,70,0.00,CLR,,0.00,WeatherDisplay:10.37,2013-10-31 00:30:00,
2013-10-30 16:35:00,44.2,35.1,28.94,NNW,338,5.0,5.0,70,0.00,CLR,,0.00,WeatherDisplay:10.37,2013-10-31 00:35:00,
2013-10-30 16:40:00,44.1,34.9,28.94,NNW,338,5.0,5.0,70,0.00,CLR,,0.00,WeatherDisplay:10.37,2013-10-31 00:40:00,
2013-10-30 16:45:00,44.1,34.9,28.94,NNW,338,5.0,5.0,70,0.00,CLR,,0.00,WeatherDisplay:10.37,2013-10-31 00:45:00,
2013-10-30 16:50:00,43.9,34.7,28.94,NNW,338,5.0,5.0,70,0.00,CLR,,0.00,WeatherDisplay:10.37,2013-10-31 00:50:00,
2013-10-30 16:55:00,44.1,35.3,28.94,NNW,338,5.0,5.0,71,0.00,CLR,,0.00,WeatherDisplay:10.37,2013-10-31 00:55:00,
2013-10-30 17:00:00,44.2,35.8,28.94,NNW,338,5.0,5.0,72,0.00,CLR,,0.00,WeatherDisplay:10.37,2013-10-31 01:00:00,
2013-10-30 17:05:00,44.2,35.8,28.94,NNW,338,5.0,5.0,72,0.00,CLR,,0.00,WeatherDisplay:10.37,2013-10-31 01:05:00,
2013-10-30 17:10:00,44.2,35.8,28.94,NNW,338,5.0,5.0,72,0.00,CLR,,0.00,WeatherDisplay:10.37,2013-10-31 01:10:00,
2013-10-30 17:15:00,44.2,35.7,28.94,NNW,338,5.0,5.0,72,0.00,CLR,,0.00,WeatherDisplay:10.37,2013-10-31 01:15:00,
2013-10-30 17:20:00,44.1,35.6,28.94,NNW,338,5.0,5.0,72,0.00,CLR,,0.00,WeatherDisplay:10.37,2013-10-31 01:20:00,
2013-10-30 17:25:00,44.1,35.6,28.94,NNW,338,5.0,5.0,72,0.00,CLR,,0.00,WeatherDisplay:10.37,2013-10-31 01:25:00,
2013-10-30 17:30:00,43.7,35.3,28.94,NNW,338,5.0,5.0,72,0.00,CLR,,0.00,WeatherDisplay:10.37,2013-10-31 01:30:00,
2013-10-30 17:35:00,43.3,34.9,28.94,NNW,338,5.0,5.0,72,0.00,CLR,,0.00,WeatherDisplay:10.37,2013-10-31 01:35:00,
2013-10-30 17:40:00,42.9,34.5,28.94,NNW,338,5.0,5.0,72,0.00,CLR,,0.00,WeatherDisplay:10.37,2013-10-31 01:40:00,
2013-10-30 17:45:00,42.6,34.6,28.94,NNW,338,5.0,5.0,73,0.00,CLR,,0.00,WeatherDisplay:10.37,2013-10-31 01:45:00,
2013-10-30 17:50:00,42.2,34.2,28.94,NNW,338,5.0,5.0,73,0.00,CLR,,0.00,WeatherDisplay:10.37,2013-10-31 01:50:00,
2013-10-30 17:55:00,41.8,34.1,28.94,NNW,338,5.0,5.0,74,0.00,CLR,,0.00,WeatherDisplay:10.37,2013-10-31 01:55:00,
2013-10-30 18:00:00,41.5,33.9,28.94,NNW,338,5.0,5.0,74,0.00,CLR,,0.00,WeatherDisplay:10.37,2013-10-31 02:00:00,
2013-10-30 18:05:00,41.2,33.9,28.94,NNW,338,5.0,5.0,75,0.00,CLR,,0.00,WeatherDisplay:10.37,2013-10-31 02:05:00,
2013-10-30 18:10:00,41.2,34.2,28.94,NNW,338,5.0,5.0,76,0.00,CLR,,0.00,WeatherDisplay:10.37,2013-10-31 02:10:00,
2013-10-30 18:15:00,40.8,33.8,28.94,NNW,338,5.0,5.0,76,0.00,CLR,,0.00,WeatherDisplay:10.37,2013-10-31 02:15:00,
2013-10-30 18:20:00,40.3,33.3,28.94,NNW,338,5.0,5.0,76,0.00,CLR,,0.00,WeatherDisplay:10.37,2013-10-31 02:20:00,
2013-10-30 18:25:00,39.8,32.9,28.94,NNW,338,5.0,5.0,76,0.00,CLR,,0.00,WeatherDisplay:10.37,2013-10-31 02:25:00,
2013-10-30 18:30:00,39.6,32.9,28.94,NNW,338,5.0,5.0,77,0.00,CLR,,0.00,WeatherDisplay:10.37,2013-10-31 02:30:00,
2013-10-30 18:35:00,39.4,32.8,28.94,NNW,338,5.0,5.0,77,0.00,CLR,,0.00,WeatherDisplay:10.37,2013-10-31 02:35:00,
2013-10-30 18:40:00,39.4,33.7,28.94,NNW,338,5.0,5.0,80,0.00,CLR,,0.00,WeatherDisplay:10.37,2013-10-31 02:40:00,
2013-10-30 18:45:00,39.2,33.9,28.94,NNW,338,5.0,5.0,81,0.00,CLR,,0.00,WeatherDisplay:10.37,2013-10-31 02:45:00,
2013-10-30 18:50:00,39.0,33.7,28.94,NNW,338,5.0,5.0,81,0.00,CLR,,0.00,WeatherDisplay:10.37,2013-10-31 02:50:00,
2013-10-30 18:55:00,38.8,33.5,28.94,NNW,338,5.0,5.0,81,0.00,CLR,,0.00,WeatherDisplay:10.37,2013-10-31 02:55:00,
2013-10-30 19:00:00,38.7,33.3,28.94,NNW,338,5.0,5.0,81,0.00,CLR,,0.00,WeatherDisplay:10.37,2013-10-31 03:00:00,
2013-10-30 19:05:00,38.8,33.5,28.94,NNW,338,5.0,5.0,81,0.00,CLR,,0.00,WeatherDisplay:10.37,2013-10-31 03:05:00,
2013-10-30 19:15:00,38.7,33.9,28.94,NNW,338,5.0,5.0,83,0.00,CLR,,0.00,WeatherDisplay:10.37,2013-10-31 03:15:00,
2013-10-30 19:20:00,38.5,33.8,28.94,NNW,338,5.0,5.0,83,0.00,CLR,,0.00,WeatherDisplay:10.37,2013-10-31 03:20:00,
2013-10-30 19:25:00,38.5,33.8,28.94,NNW,338,5.0,5.0,83,0.00,CLR,,0.00,WeatherDisplay:10.37,2013-10-31 03:25:00,
2013-10-30 19:30:00,38.5,34.1,28.94,NNW,338,5.0,5.0,84,0.00,CLR,,0.00,WeatherDisplay:10.37,2013-10-31 03:30:00,
2013-10-30 19:35:00,38.5,34.1,28.94,NNW,338,5.0,5.0,84,0.00,CLR,,0.00,WeatherDisplay:10.37,2013-10-31 03:35:00,
2013-10-30 19:45:00,38.1,33.7,28.94,NNW,338,5.0,5.0,84,0.00,CLR,,0.00,WeatherDisplay:10.37,2013-10-31 03:45:00,
2013-10-30 19:50:00,38.1,33.7,28.94,NNW,338,5.0,5.0,84,0.00,CLR,,0.00,WeatherDisplay:10.37,2013-10-31 03:50:00,
2013-10-30 19:55:00,38.3,34.2,28.94,NNW,338,5.0,5.0,85,0.00,CLR,,0.00,WeatherDisplay:10.37,2013-10-31 03:55:00,
2013-10-30 20:00:00,38.3,34.2,28.97,NNW,338,5.0,5.0,85,0.00,CLR,,0.00,WeatherDisplay:10.37,2013-10-31 04:00:00,
2013-10-30 20:05:00,38.3,34.2,28.97,NNW,338,5.0,5.0,85,0.00,CLR,,0.00,WeatherDisplay:10.37,2013-10-31 04:05:00,
2013-10-30 20:10:00,38.1,34.0,28.97,NNW,338,5.0,5.0,85,0.00,CLR,,0.00,WeatherDisplay:10.37,2013-10-31 04:10:00,
2013-10-30 20:15:00,38.1,34.3,28.97,NNW,338,5.0,5.0,86,0.00,CLR,,0.00,WeatherDisplay:10.37,2013-10-31 04:15:00,
2013-10-30 20:20:00,38.3,34.5,28.97,NNW,338,5.0,5.0,86,0.00,CLR,,0.00,WeatherDisplay:10.37,2013-10-31 04:20:00,
2013-10-30 20:25:00,38.5,34.7,28.97,NNW,338,5.0,5.0,86,0.00,CLR,,0.00,WeatherDisplay:10.37,2013-10-31 04:25:00,
2013-10-30 20:30:00,38.7,34.8,28.97,NNW,338,5.0,5.0,86,0.00,CLR,,0.00,WeatherDisplay:10.37,2013-10-31 04:30:00,
2013-10-30 20:35:00,38.8,35.3,28.97,NNW,338,5.0,5.0,87,0.00,CLR,,0.00,WeatherDisplay:10.37,2013-10-31 04:35:00,
2013-10-30 20:40:00,38.8,35.3,28.97,NNW,338,5.0,5.0,87,0.00,CLR,,0.00,WeatherDisplay:10.37,2013-10-31 04:40:00,
2013-10-30 20:45:00,38.7,35.1,28.97,NNW,338,5.0,5.0,87,0.00,CLR,,0.00,WeatherDisplay:10.37,2013-10-31 04:45:00,
2013-10-30 20:50:00,38.7,35.1,28.97,NNW,338,5.0,5.0,87,0.00,CLR,,0.00,WeatherDisplay:10.37,2013-10-31 04:50:00,
2013-10-30 20:55:00,38.7,34.8,28.97,NNW,338,5.0,5.0,86,0.00,CLR,,0.00,WeatherDisplay:10.37,2013-10-31 04:55:00,
2013-10-30 21:00:00,39.2,36.0,28.97,NNW,338,5.0,5.0,88,0.00,CLR,,0.00,WeatherDisplay:10.37,2013-10-31 05:00:00,
2013-10-30 21:05:00,39.9,38.3,28.97,NNW,338,5.0,5.0,94,0.00,CLR,,0.00,WeatherDisplay:10.37,2013-10-31 05:05:00,
2013-10-30 21:15:00,40.5,39.4,28.97,NNW,338,5.0,5.0,96,0.00,CLR,,0.00,WeatherDisplay:10.37,2013-10-31 05:15:00,
2013-10-30 21:20:00,40.5,39.4,28.97,NNW,338,5.0,5.0,96,0.00,CLR,,0.00,WeatherDisplay:10.37,2013-10-31 05:20:00,
2013-10-30 21:25:00,40.6,39.3,28.97,NNW,338,5.0,5.0,95,0.00,CLR,,0.00,WeatherDisplay:10.37,2013-10-31 05:25:00,
2013-10-30 21:30:00,40.5,38.9,28.97,NNW,338,5.0,5.0,94,0.00,CLR,,0.00,WeatherDisplay:10.37,2013-10-31 05:30:00,
2013-10-30 21:35:00,40.5,38.6,28.97,NNW,338,5.0,5.0,93,0.00,CLR,,0.00,WeatherDisplay:10.37,2013-10-31 05:35:00,
2013-10-30 21:40:00,40.3,38.1,28.97,NNW,338,5.0,5.0,92,0.00,CLR,,0.00,WeatherDisplay:10.37,2013-10-31 05:40:00,
2013-10-30 21:45:00,40.1,37.7,28.97,NNW,338,5.0,5.0,91,0.00,CLR,,0.00,WeatherDisplay:10.37,2013-10-31 05:45:00,
2013-10-30 21:50:00,40.2,37.8,28.97,NNW,338,5.0,5.0,91,0.00,CLR,,0.00,WeatherDisplay:10.37,2013-10-31 05:50:00,
2013-10-30 21:55:00,40.1,37.4,28.97,NNW,338,5.0,5.0,90,0.00,CLR,,0.00,WeatherDisplay:10.37,2013-10-31 05:55:00,
2013-10-30 22:00:00,39.9,37.2,28.97,NNW,338,5.0,5.0,90,0.00,CLR,,0.00,WeatherDisplay:10.37,2013-10-31 06:00:00,
2013-10-30 22:05:00,40.1,37.7,28.97,NNW,338,5.0,5.0,91,0.00,CLR,,0.00,WeatherDisplay:10.37,2013-10-31 06:05:00,
2013-10-30 22:10:00,40.3,37.9,28.97,NNW,338,5.0,5.0,91,0.00,CLR,,0.00,WeatherDisplay:10.37,2013-10-31 06:10:00,
2013-10-30 22:15:00,40.3,37.6,28.97,NNW,338,5.0,5.0,90,0.00,CLR,,0.00,WeatherDisplay:10.37,2013-10-31 06:15:00,
2013-10-30 22:20:00,40.1,37.1,28.97,NNW,338,5.0,5.0,89,0.00,CLR,,0.00,WeatherDisplay:10.37,2013-10-31 06:20:00,
2013-10-30 22:25:00,39.9,36.9,28.97,NNW,338,5.0,5.0,89,0.00,CLR,,0.00,WeatherDisplay:10.37,2013-10-31 06:25:00,
2013-10-30 22:30:00,39.9,36.9,29.00,NNW,338,5.0,5.0,89,0.00,CLR,,0.00,WeatherDisplay:10.37,2013-10-31 06:30:00,
2013-10-30 22:40:00,39.7,36.8,29.00,NNW,338,5.0,5.0,89,0.00,CLR,,0.00,WeatherDisplay:10.37,2013-10-31 06:40:00,
2013-10-30 22:45:00,39.6,36.6,29.00,NNW,338,5.0,5.0,89,0.00,CLR,,0.00,WeatherDisplay:10.37,2013-10-31 06:45:00,
2013-10-30 22:50:00,39.6,36.6,29.00,NNW,338,5.0,5.0,89,0.00,CLR,,0.00,WeatherDisplay:10.37,2013-10-31 06:50:00,
2013-10-30 22:55:00,39.7,36.8,29.00,NNW,338,5.0,5.0,89,0.00,CLR,,0.00,WeatherDisplay:10.37,2013-10-31 06:55:00,
2013-10-30 23:00:00,39.7,37.0,29.00,NNW,338,5.0,5.0,90,0.00,CLR,,0.00,WeatherDisplay:10.37,2013-10-31 07:00:00,
2013-10-30 23:05:00,39.5,36.5,29.00,NNW,338,5.0,5.0,89,0.00,CLR,,0.00,WeatherDisplay:10.37,2013-10-31 07:05:00,
2013-10-30 23:10:00,39.4,36.4,29.00,NNW,338,5.0,5.0,89,0.00,CLR,,0.00,WeatherDisplay:10.37,2013-10-31 07:10:00,
2013-10-30 23:15:00,39.2,36.2,29.00,NNW,338,5.0,5.0,89,0.00,CLR,,0.00,WeatherDisplay:10.37,2013-10-31 07:15:00,
2013-10-30 23:20:00,39.4,36.7,29.00,NNW,338,5.0,5.0,90,0.00,CLR,,0.00,WeatherDisplay:10.37,2013-10-31 07:20:00,
2013-10-30 23:25:00,39.2,36.5,29.00,NNW,338,5.0,5.0,90,0.00,CLR,,0.00,WeatherDisplay:10.37,2013-10-31 07:25:00,
2013-10-30 23:30:00,39.0,36.3,29.00,NNW,338,5.0,5.0,90,0.00,CLR,,0.00,WeatherDisplay:10.37,2013-10-31 07:30:00,
2013-10-30 23:35:00,38.9,36.2,29.00,NNW,338,5.0,5.0,90,0.00,CLR,,0.00,WeatherDisplay:10.37,2013-10-31 07:35:00,
2013-10-30 23:40:00,39.0,36.6,29.00,NNW,338,5.0,5.0,91,0.00,CLR,,0.00,WeatherDisplay:10.37,2013-10-31 07:40:00,
2013-10-30 23:45:00,39.2,36.5,29.00,NNW,338,5.0,5.0,90,0.00,CLR,,0.00,WeatherDisplay:10.37,2013-10-31 07:45:00,
2013-10-30 23:50:00,39.0,36.6,29.00,NNW,338,5.0,5.0,91,0.00,CLR,,0.00,WeatherDisplay:10.37,2013-10-31 07:50:00,
2013-10-30 23:55:00,39.0,36.6,29.00,NNW,338,5.0,5.0,91,0.00,CLR,,0.00,WeatherDisplay:10.37,2013-10-31 07:55:00,